Time,TemperatureF,DewpointF,PressureIn,WindDirection,WindDirectionDegrees,WindSpeedMPH,WindSpeedGustMPH,Humidity,HourlyPrecipIn,Conditions,Clouds,dailyrainin,SoftwareType,DateUTC
2013-05-26 00:02:00,73.0,65.0,29.99,South,184,0.0,-999.0,75,-99.99,,,-99.99,,2013-05-26 05:02:00,
2013-05-26 00:12:00,73.0,65.0,29.99,South,184,0.0,-999.0,75,-99.99,,,-99.99,,2013-05-26 05:12:00,
2013-05-26 00:22:00,73.0,65.0,29.99,South,184,0.0,-999.0,76,-99.99,,,-99.99,,2013-05-26 05:22:00,
2013-05-26 00:32:00,73.0,65.0,29.99,South,184,0.0,-999.0,76,-99.99,,,-99.99,,2013-05-26 05:32:00,
2013-05-26 00:42:00,73.0,65.0,29.99,South,184,0.0,-999.0,76,-99.99,,,-99.99,,2013-05-26 05:42:00,
2013-05-26 00:52:00,72.0,65.0,29.99,South,184,0.0,-999.0,78,-99.99,,,-99.99,,2013-05-26 05:52:00,
2013-05-26 01:01:00,73.0,65.0,29.99,South,183,0.0,-999.0,77,-99.99,,,-99.99,,2013-05-26 06:01:00,
2013-05-26 01:12:00,73.0,65.0,29.99,South,183,0.0,-999.0,77,-99.99,,,-99.99,,2013-05-26 06:12:00,
2013-05-26 01:22:00,73.0,65.0,29.98,South,183,2.0,-999.0,77,-99.99,,,-99.99,,2013-05-26 06:22:00,
2013-05-26 01:32:00,73.0,65.0,29.98,South,180,4.0,-999.0,76,-99.99,,,-99.99,,2013-05-26 06:32:00,
2013-05-26 01:42:00,73.0,65.0,29.98,South,180,4.0,-999.0,76,-99.99,,,-99.99,,2013-05-26 06:42:00,
2013-05-26 01:52:00,73.0,65.0,29.98,South,179,1.0,-999.0,76,-99.99,,,-99.99,,2013-05-26 06:52:00,
2013-05-26 02:01:00,73.0,65.0,29.97,South,178,0.0,-999.0,77,-99.99,,,-99.99,,2013-05-26 07:01:00,
2013-05-26 02:11:00,73.0,65.0,29.97,South,178,0.0,-999.0,77,-99.99,,,-99.99,,2013-05-26 07:11:00,
2013-05-26 02:21:00,73.0,66.0,29.97,South,178,3.0,-999.0,78,-99.99,,,-99.99,,2013-05-26 07:21:00,
2013-05-26 02:31:00,72.0,65.0,29.98,South,178,4.0,-999.0,79,-99.99,,,-99.99,,2013-05-26 07:31:00,
2013-05-26 02:42:00,72.0,65.0,29.98,South,178,4.0,-999.0,79,-99.99,,,-99.99,,2013-05-26 07:42:00,
2013-05-26 02:52:00,72.0,65.0,29.97,South,178,1.0,-999.0,80,-99.99,,,-99.99,,2013-05-26 07:52:00,
2013-05-26 03:01:00,72.0,66.0,29.97,South,177,0.0,-999.0,81,-99.99,,,-99.99,,2013-05-26 08:01:00,
2013-05-26 03:12:00,72.0,66.0,29.97,South,177,0.0,-999.0,81,-99.99,,,-99.99,,2013-05-26 08:12:00,
2013-05-26 03:21:00,71.0,65.0,29.98,South,177,0.0,-999.0,81,-99.99,,,-99.99,,2013-05-26 08:21:00,
2013-05-26 03:32:00,71.0,65.0,29.98,South,177,1.0,-999.0,82,-99.99,,,-99.99,,2013-05-26 08:32:00,
2013-05-26 03:42:00,71.0,65.0,29.98,South,177,1.0,-999.0,82,-99.99,,,-99.99,,2013-05-26 08:42:00,
2013-05-26 03:53:00,70.0,65.0,29.98,South,177,0.0,-999.0,83,-99.99,,,-99.99,,2013-05-26 08:53:00,
2013-05-26 04:01:00,70.0,65.0,29.97,South,177,0.0,-999.0,84,-99.99,,,-99.99,,2013-05-26 09:01:00,
2013-05-26 04:11:00,70.0,65.0,29.96,South,177,0.0,-999.0,85,-99.99,,,-99.99,,2013-05-26 09:11:00,
2013-05-26 04:21:00,70.0,65.0,29.96,South,177,0.0,-999.0,85,-99.99,,,-99.99,,2013-05-26 09:21:00,
2013-05-26 04:33:00,70.0,65.0,29.96,South,177,1.0,-999.0,85,-99.99,,,-99.99,,2013-05-26 09:33:00,
2013-05-26 04:42:00,70.0,65.0,29.96,South,177,1.0,-999.0,85,-99.99,,,-99.99,,2013-05-26 09:42:00,
2013-05-26 04:52:00,70.0,65.0,29.95,South,177,0.0,-999.0,85,-99.99,,,-99.99,,2013-05-26 09:52:00,
2013-05-26 05:02:00,70.0,66.0,29.94,South,177,0.0,-999.0,86,-99.99,,,-99.99,,2013-05-26 10:02:00,
2013-05-26 05:12:00,70.0,66.0,29.94,South,177,0.0,-999.0,86,-99.99,,,-99.99,,2013-05-26 10:12:00,
2013-05-26 05:23:00,69.0,65.0,29.94,South,176,0.0,-999.0,87,-99.99,,,-99.99,,2013-05-26 10:23:00,
2013-05-26 05:33:00,68.0,64.0,29.94,South,176,0.0,-999.0,87,-99.99,,,-99.99,,2013-05-26 10:33:00,
2013-05-26 05:42:00,68.0,64.0,29.94,South,176,0.0,-999.0,87,-99.99,,,-99.99,,2013-05-26 10:42:00,
2013-05-26 05:52:00,68.0,64.0,29.94,South,176,0.0,-999.0,88,-99.99,,,-99.99,,2013-05-26 10:52:00,
2013-05-26 06:03:00,68.0,65.0,29.94,South,176,0.0,-999.0,89,-99.99,,,-99.99,,2013-05-26 11:03:00,
2013-05-26 06:11:00,68.0,65.0,29.94,South,176,0.0,-999.0,89,-99.99,,,-99.99,,2013-05-26 11:11:00,
2013-05-26 06:22:00,69.0,66.0,29.95,South,176,0.0,-999.0,89,-99.99,,,-99.99,,2013-05-26 11:22:00,
2013-05-26 06:32:00,69.0,65.0,29.95,South,176,2.0,-999.0,88,-99.99,,,-99.99,,2013-05-26 11:32:00,
2013-05-26 06:42:00,69.0,65.0,29.95,South,176,2.0,-999.0,88,-99.99,,,-99.99,,2013-05-26 11:42:00,
2013-05-26 06:52:00,69.0,65.0,29.94,South,180,5.0,-999.0,86,-99.99,,,-99.99,,2013-05-26 11:52:00,
2013-05-26 07:02:00,70.0,66.0,29.95,South,180,4.0,-999.0,86,-99.99,,,-99.99,,2013-05-26 12:02:00,
2013-05-26 07:12:00,70.0,66.0,29.95,South,180,4.0,-999.0,86,-99.99,,,-99.99,,2013-05-26 12:12:00,
2013-05-26 07:21:00,70.0,66.0,29.95,South,175,4.0,-999.0,86,-99.99,,,-99.99,,2013-05-26 12:21:00,
2013-05-26 07:32:00,70.0,65.0,29.95,South,180,2.0,-999.0,85,-99.99,,,-99.99,,2013-05-26 12:32:00,
2013-05-26 07:42:00,70.0,65.0,29.95,South,180,2.0,-999.0,85,-99.99,,,-99.99,,2013-05-26 12:42:00,
2013-05-26 07:52:00,71.0,66.0,29.94,South,178,5.0,-999.0,85,-99.99,,,-99.99,,2013-05-26 12:52:00,
2013-05-26 08:02:00,71.0,66.0,29.94,South,180,6.0,-999.0,84,-99.99,,,-99.99,,2013-05-26 13:02:00,
2013-05-26 08:11:00,71.0,66.0,29.94,South,180,6.0,-999.0,84,-99.99,,,-99.99,,2013-05-26 13:11:00,
2013-05-26 08:21:00,72.0,67.0,29.94,South,174,8.0,-999.0,84,-99.99,,,-99.99,,2013-05-26 13:21:00,
2013-05-26 08:32:00,73.0,68.0,29.94,South,178,6.0,-999.0,83,-99.99,,,-99.99,,2013-05-26 13:32:00,
2013-05-26 08:42:00,73.0,68.0,29.94,South,178,6.0,-999.0,83,-99.99,,,-99.99,,2013-05-26 13:42:00,
2013-05-26 08:52:00,73.0,67.0,29.95,SSE,163,7.0,-999.0,82,-99.99,,,-99.99,,2013-05-26 13:52:00,
2013-05-26 09:02:00,73.0,67.0,29.95,South,173,3.0,-999.0,82,-99.99,,,-99.99,,2013-05-26 14:02:00,
2013-05-26 09:11:00,73.0,67.0,29.95,South,173,3.0,-999.0,82,-99.99,,,-99.99,,2013-05-26 14:11:00,
2013-05-26 09:21:00,73.0,67.0,29.95,South,171,2.0,-999.0,82,-99.99,,,-99.99,,2013-05-26 14:21:00,
2013-05-26 09:32:00,74.0,68.0,29.95,South,170,7.0,-999.0,82,-99.99,,,-99.99,,2013-05-26 14:32:00,
2013-05-26 09:42:00,74.0,68.0,29.95,South,170,7.0,-999.0,82,-99.99,,,-99.99,,2013-05-26 14:42:00,
2013-05-26 09:52:00,74.0,68.0,29.95,South,180,7.0,-999.0,81,-99.99,,,-99.99,,2013-05-26 14:52:00,
2013-05-26 10:01:00,74.0,67.0,29.95,South,169,6.0,-999.0,80,-99.99,,,-99.99,,2013-05-26 15:01:00,
2013-05-26 10:12:00,74.0,67.0,29.95,South,169,6.0,-999.0,80,-99.99,,,-99.99,,2013-05-26 15:12:00,
2013-05-26 10:22:00,75.0,68.0,29.95,South,175,2.0,-999.0,80,-99.99,,,-99.99,,2013-05-26 15:22:00,
2013-05-26 10:33:00,76.0,69.0,29.94,South,179,3.0,-999.0,78,-99.99,,,-99.99,,2013-05-26 15:33:00,
2013-05-26 10:43:00,76.0,69.0,29.94,South,179,3.0,-999.0,78,-99.99,,,-99.99,,2013-05-26 15:43:00,
2013-05-26 10:53:00,76.0,68.0,29.93,South,181,8.0,-999.0,76,-99.99,,,-99.99,,2013-05-26 15:53:00,
2013-05-26 11:03:00,76.0,68.0,29.93,South,177,7.0,-999.0,77,-99.99,,,-99.99,,2013-05-26 16:03:00,
2013-05-26 11:12:00,76.0,68.0,29.93,South,177,7.0,-999.0,77,-99.99,,,-99.99,,2013-05-26 16:12:00,
2013-05-26 11:23:00,77.0,69.0,29.93,South,171,9.0,-999.0,77,-99.99,,,-99.99,,2013-05-26 16:23:00,
2013-05-26 11:33:00,78.0,70.0,29.93,South,186,5.0,-999.0,76,-99.99,,,-99.99,,2013-05-26 16:33:00,
2013-05-26 11:42:00,78.0,70.0,29.93,South,186,5.0,-999.0,76,-99.99,,,-99.99,,2013-05-26 16:42:00,
2013-05-26 11:52:00,78.0,69.0,29.93,South,185,8.0,-999.0,75,-99.99,,,-99.99,,2013-05-26 16:52:00,
2013-05-26 12:02:00,78.0,69.0,29.94,South,182,4.0,-999.0,74,-99.99,,,-99.99,,2013-05-26 17:02:00,
2013-05-26 12:11:00,78.0,69.0,29.94,South,182,4.0,-999.0,74,-99.99,,,-99.99,,2013-05-26 17:11:00,
2013-05-26 12:22:00,79.0,70.0,29.93,South,171,6.0,-999.0,73,-99.99,,,-99.99,,2013-05-26 17:22:00,
2013-05-26 12:32:00,78.0,68.0,29.94,SSE,157,5.0,-999.0,72,-99.99,,,-99.99,,2013-05-26 17:32:00,
2013-05-26 12:42:00,78.0,68.0,29.94,SSE,157,5.0,-999.0,72,-99.99,,,-99.99,,2013-05-26 17:42:00,
2013-05-26 12:52:00,78.0,69.0,29.94,South,179,7.0,-999.0,73,-99.99,,,-99.99,,2013-05-26 17:52:00,
2013-05-26 13:01:00,80.0,69.0,29.93,South,175,8.0,-999.0,69,-99.99,,,-99.99,,2013-05-26 18:01:00,
2013-05-26 13:12:00,80.0,69.0,29.93,South,175,8.0,-999.0,69,-99.99,,,-99.99,,2013-05-26 18:12:00,
2013-05-26 13:21:00,81.0,69.0,29.93,SSE,168,8.0,-999.0,68,-99.99,,,-99.99,,2013-05-26 18:21:00,
2013-05-26 13:32:00,81.0,69.0,29.93,South,181,4.0,-999.0,66,-99.99,,,-99.99,,2013-05-26 18:32:00,
2013-05-26 13:42:00,81.0,69.0,29.93,South,181,4.0,-999.0,66,-99.99,,,-99.99,,2013-05-26 18:42:00,
2013-05-26 13:52:00,80.0,68.0,29.93,South,179,4.0,-999.0,67,-99.99,,,-99.99,,2013-05-26 18:52:00,
2013-05-26 14:01:00,80.0,68.0,29.92,South,182,4.0,-999.0,68,-99.99,,,-99.99,,2013-05-26 19:01:00,
2013-05-26 14:11:00,80.0,68.0,29.92,South,182,4.0,-999.0,68,-99.99,,,-99.99,,2013-05-26 19:11:00,
2013-05-26 14:22:00,81.0,69.0,29.91,South,180,3.0,-999.0,68,-99.99,,,-99.99,,2013-05-26 19:22:00,
2013-05-26 14:32:00,83.0,71.0,29.90,South,173,4.0,-999.0,67,-99.99,,,-99.99,,2013-05-26 19:32:00,
2013-05-26 14:42:00,83.0,71.0,29.90,South,173,4.0,-999.0,67,-99.99,,,-99.99,,2013-05-26 19:42:00,
2013-05-26 14:52:00,84.0,70.0,29.90,South,184,4.0,-999.0,64,-99.99,,,-99.99,,2013-05-26 19:52:00,
2013-05-26 15:02:00,84.0,70.0,29.89,South,174,6.0,-999.0,64,-99.99,,,-99.99,,2013-05-26 20:02:00,
2013-05-26 15:11:00,84.0,70.0,29.89,South,174,6.0,-999.0,64,-99.99,,,-99.99,,2013-05-26 20:11:00,
2013-05-26 15:22:00,83.0,69.0,29.89,SSE,155,4.0,-999.0,63,-99.99,,,-99.99,,2013-05-26 20:22:00,
2013-05-26 15:32:00,83.0,70.0,29.88,South,172,5.0,-999.0,65,-99.99,,,-99.99,,2013-05-26 20:32:00,
2013-05-26 15:42:00,83.0,70.0,29.88,South,172,5.0,-999.0,65,-99.99,,,-99.99,,2013-05-26 20:42:00,
2013-05-26 15:52:00,83.0,69.0,29.88,SSE,165,6.0,-999.0,62,-99.99,,,-99.99,,2013-05-26 20:52:00,
2013-05-26 16:02:00,83.0,69.0,29.88,South,180,5.0,-999.0,63,-99.99,,,-99.99,,2013-05-26 21:02:00,
2013-05-26 16:11:00,83.0,69.0,29.88,South,180,5.0,-999.0,63,-99.99,,,-99.99,,2013-05-26 21:11:00,
2013-05-26 16:22:00,84.0,70.0,29.87,South,175,2.0,-999.0,64,-99.99,,,-99.99,,2013-05-26 21:22:00,
2013-05-26 16:33:00,85.0,69.0,29.87,South,183,6.0,-999.0,59,-99.99,,,-99.99,,2013-05-26 21:33:00,
2013-05-26 16:43:00,85.0,69.0,29.87,South,183,6.0,-999.0,59,-99.99,,,-99.99,,2013-05-26 21:43:00,
2013-05-26 16:53:00,84.0,70.0,29.86,South,176,7.0,-999.0,62,-99.99,,,-99.99,,2013-05-26 21:53:00,
2013-05-26 17:03:00,84.0,70.0,29.86,South,184,3.0,-999.0,62,-99.99,,,-99.99,,2013-05-26 22:03:00,
2013-05-26 17:12:00,84.0,70.0,29.86,South,184,3.0,-999.0,62,-99.99,,,-99.99,,2013-05-26 22:12:00,
2013-05-26 17:23:00,84.0,70.0,29.85,South,175,2.0,-999.0,63,-99.99,,,-99.99,,2013-05-26 22:23:00,
2013-05-26 17:33:00,83.0,70.0,29.85,South,169,1.0,-999.0,65,-99.99,,,-99.99,,2013-05-26 22:33:00,
2013-05-26 17:42:00,83.0,70.0,29.85,South,176,2.0,-999.0,66,-99.99,,,-99.99,,2013-05-26 22:42:00,
2013-05-26 17:53:00,83.0,70.0,29.85,South,176,2.0,-999.0,66,-99.99,,,-99.99,,2013-05-26 22:53:00,
2013-05-26 18:02:00,83.0,70.0,29.84,South,174,4.0,-999.0,65,-99.99,,,-99.99,,2013-05-26 23:02:00,
2013-05-26 18:12:00,83.0,70.0,29.84,South,174,4.0,-999.0,65,-99.99,,,-99.99,,2013-05-26 23:12:00,
2013-05-26 18:22:00,83.0,70.0,29.84,South,169,3.0,-999.0,66,-99.99,,,-99.99,,2013-05-26 23:22:00,
2013-05-26 18:32:00,83.0,70.0,29.83,South,173,3.0,-999.0,64,-99.99,,,-99.99,,2013-05-26 23:32:00,
2013-05-26 18:43:00,83.0,70.0,29.83,South,173,3.0,-999.0,64,-99.99,,,-99.99,,2013-05-26 23:43:00,
2013-05-26 18:52:00,83.0,70.0,29.83,South,173,7.0,-999.0,65,-99.99,,,-99.99,,2013-05-26 23:52:00,
2013-05-26 19:02:00,82.0,69.0,29.82,South,181,2.0,-999.0,65,-99.99,,,-99.99,,2013-05-27 00:02:00,
2013-05-26 19:11:00,82.0,69.0,29.82,South,181,2.0,-999.0,65,-99.99,,,-99.99,,2013-05-27 00:11:00,
2013-05-26 19:21:00,82.0,69.0,29.82,SSW,193,4.0,-999.0,65,-99.99,,,-99.99,,2013-05-27 00:21:00,
2013-05-26 19:32:00,83.0,70.0,29.82,South,182,6.0,-999.0,65,-99.99,,,-99.99,,2013-05-27 00:32:00,
2013-05-26 19:42:00,83.0,70.0,29.82,South,182,6.0,-999.0,65,-99.99,,,-99.99,,2013-05-27 00:42:00,
2013-05-26 19:52:00,82.0,69.0,29.82,South,184,4.0,-999.0,64,-99.99,,,-99.99,,2013-05-27 00:52:00,
2013-05-26 20:01:00,82.0,69.0,29.82,South,178,5.0,-999.0,65,-99.99,,,-99.99,,2013-05-27 01:01:00,
2013-05-26 20:11:00,82.0,69.0,29.82,South,178,5.0,-999.0,65,-99.99,,,-99.99,,2013-05-27 01:11:00,
2013-05-26 20:22:00,81.0,69.0,29.82,South,180,3.0,-999.0,66,-99.99,,,-99.99,,2013-05-27 01:22:00,
2013-05-26 20:31:00,80.0,68.0,29.81,South,173,7.0,-999.0,68,-99.99,,,-99.99,,2013-05-27 01:31:00,
2013-05-26 20:42:00,80.0,69.0,29.82,South,175,3.0,-999.0,69,-99.99,,,-99.99,,2013-05-27 01:42:00,
2013-05-26 20:52:00,80.0,69.0,29.82,South,175,3.0,-999.0,69,-99.99,,,-99.99,,2013-05-27 01:52:00,
2013-05-26 21:01:00,79.0,69.0,29.83,South,172,0.0,-999.0,71,-99.99,,,-99.99,,2013-05-27 02:01:00,
2013-05-26 21:11:00,79.0,69.0,29.83,South,172,0.0,-999.0,71,-99.99,,,-99.99,,2013-05-27 02:11:00,
2013-05-26 21:21:00,78.0,69.0,29.84,SSE,161,0.0,-999.0,73,-99.99,,,-99.99,,2013-05-27 02:21:00,
2013-05-26 21:32:00,78.0,69.0,29.85,SSE,159,0.0,-999.0,73,-99.99,,,-99.99,,2013-05-27 02:32:00,
2013-05-26 21:42:00,78.0,69.0,29.85,SSE,159,0.0,-999.0,73,-99.99,,,-99.99,,2013-05-27 02:42:00,
2013-05-26 21:52:00,78.0,69.0,29.86,SSE,161,0.0,-999.0,74,-99.99,,,-99.99,,2013-05-27 02:52:00,
2013-05-26 22:02:00,77.0,68.0,29.88,SSE,161,0.0,-999.0,75,-99.99,,,-99.99,,2013-05-27 03:02:00,
2013-05-26 22:11:00,77.0,68.0,29.88,SSE,161,0.0,-999.0,75,-99.99,,,-99.99,,2013-05-27 03:11:00,
2013-05-26 22:21:00,77.0,68.0,29.88,SSE,164,2.0,-999.0,75,-99.99,,,-99.99,,2013-05-27 03:21:00,
2013-05-26 22:33:00,78.0,69.0,29.88,South,170,0.0,-999.0,74,-99.99,,,-99.99,,2013-05-27 03:33:00,
2013-05-26 22:43:00,78.0,69.0,29.88,South,170,0.0,-999.0,74,-99.99,,,-99.99,,2013-05-27 03:43:00,
2013-05-26 22:53:00,78.0,69.0,29.86,South,180,4.0,-999.0,73,-99.99,,,-99.99,,2013-05-27 03:53:00,
2013-05-26 23:02:00,77.0,68.0,29.86,South,174,9.0,-999.0,74,-99.99,,,-99.99,,2013-05-27 04:02:00,
2013-05-26 23:12:00,77.0,68.0,29.86,South,174,9.0,-999.0,74,-99.99,,,-99.99,,2013-05-27 04:12:00,
2013-05-26 23:23:00,77.0,68.0,29.86,South,174,2.0,-999.0,74,-99.99,,,-99.99,,2013-05-27 04:23:00,
2013-05-26 23:33:00,77.0,68.0,29.86,South,175,4.0,-999.0,75,-99.99,,,-99.99,,2013-05-27 04:33:00,
2013-05-26 23:43:00,76.0,67.0,29.85,South,177,8.0,-999.0,75,-99.99,,,-99.99,,2013-05-27 04:43:00,
2013-05-26 23:52:00,76.0,67.0,29.85,South,177,8.0,-999.0,75,-99.99,,,-99.99,,2013-05-27 04:52:00,